Castlegar, British Columbia

6:19 AM PDT on May 24, 2017 (GMT -0700)
Castlegar

Weather History for CYCG - September, 2012

Change the Weather History Date:

Thursday, September 13, 2012

  Actual Average Record
Temperature  
Mean Temperature 65 °F -  
Max Temperature 75 °F 62 °F 87 °F (2002)
Min Temperature 55 °F 42 °F 35 °F (2003)
Growing Degree Days 15 (Base 50)    
Moisture  
Dew Point 46 °F    
Average Humidity 64    
Maximum Humidity 98    
Minimum Humidity 34    
Precipitation  
Precipitation 0.00 in 0.06 in - ()
Sea Level Pressure  
Sea Level Pressure 30.34 in    
Wind  
Wind Speed 4 mph ()    
Max Wind Speed 14 mph    
Max Gust Speed -    
Visibility 15.0 miles    
Events      
Averages and records for this station are not official NWS values.
T = Trace of Precipitation, MM = Missing Value Source: Averaged Metar Reports

Daily Weather History Graph

Daily Weather History Graph

Search for Another Location

Airport or City:

Trip Planner

Search our weather history database for the weather conditions in past years. The results will help you decide how hot, cold, wet, or windy it might be!

Date:

Astronomy

Sep. 13, 2012 Rise Set
Actual Time 6:24 AM PDT 7:06 PM PDT
Civil Twilight 5:52 AM PDT 7:38 PM PDT
Nautical Twilight 5:14 AM PDT 8:16 PM PDT
Astronomical Twilight 4:33 AM PDT 8:57 PM PDT
Moon 3:39 AM PDT (9/13) 5:38 PM PDT (9/13)
Length of Visible Light 13h 46m
Length of Day
12h 41m
Waning Crescent, 7% of the Moon is Illuminated
Sep 13
Waning Crescent
Sep 15
New
Sep 22
First Quarter
Sep 29
Full
Oct 8
Last Quarter

Hourly Weather History & Observations

Time (PDT) Temp. Dew Point Humidity Pressure Visibility Wind Dir Wind Speed Gust Speed Precip Events Conditions
5:00 AM 61 °F 61 °F 98% 30.37 in - South 5.8 mph - -  
6:00 AM 39.2 °F 35.6 °F 87% 30.48 in 15.0 mi Calm Calm - N/A   Clear
7:00 AM 39.2 °F 35.6 °F 87% 30.49 in 15.0 mi Calm Calm - N/A   Partly Cloudy
8:00 AM 44.6 °F 41.0 °F 87% 30.49 in 15.0 mi Calm Calm - N/A   Partly Cloudy
9:00 AM 50.0 °F 41.0 °F 71% 30.49 in 15.0 mi North 5.8 mph - N/A   Clear
10:00 AM 53.6 °F 41.0 °F 62% 30.47 in 15.0 mi NNW 6.9 mph - N/A   Clear
11:00 AM 67 °F 59 °F 68% 30.35 in - SW 13.8 mph - -  
11:00 AM 57.2 °F 41.0 °F 55% 30.43 in 15.0 mi NNW 8.1 mph - N/A   Clear
12:00 PM 62.6 °F 42.8 °F 48% 30.40 in 15.0 mi NNW 5.8 mph - N/A   Clear
1:00 PM 64.4 °F 42.8 °F 45% 30.36 in 15.0 mi NW 4.6 mph - N/A   Partly Cloudy
2:00 PM 69.8 °F 44.6 °F 40% 30.31 in 15.0 mi WNW 2.3 mph - N/A   Partly Cloudy
3:00 PM 73.4 °F 44.6 °F 36% 30.27 in 15.0 mi WNW 2.3 mph - N/A   Scattered Clouds
4:00 PM 75.2 °F 44.6 °F 34% 30.24 in 15.0 mi NW 3.5 mph - N/A   Mostly Cloudy
5:00 PM 60 °F 58 °F 90% 30.32 in - SSW 8.1 mph - -  
5:00 PM 75.2 °F 44.6 °F 34% 30.21 in 15.0 mi NNW 3.5 mph - N/A   Mostly Cloudy
6:00 PM 71.6 °F 48.2 °F 43% 30.20 in 15.0 mi North 8.1 mph - N/A   Mostly Cloudy
7:00 PM 64.4 °F 50.0 °F 59% 30.19 in 15.0 mi Calm Calm - N/A   Partly Cloudy
8:00 PM 59.0 °F 48.2 °F 67% 30.22 in 15.0 mi Calm Calm - N/A   Partly Cloudy
9:00 PM 55.4 °F 48.2 °F 77% 30.24 in 15.0 mi Calm Calm - N/A   Partly Cloudy
11:00 PM 59 °F 58 °F 93% 30.29 in - South 6.9 mph - -